This demonstration page uses our WeatherBlox Daily Observations layout. Learn more.

Left ArrowRight Arrow

39.29038, -76.61219

Hourly Observations for September 12, 2020

Temp ( °F °C ) Dew Point ( °F °C ) Humidity (%) Winds ( mph kmh ) Pressure ( in mb ) Visibility ( mi km ) Precip ( " mm )
12:45 am 00:45 Mostly Cloudy 72 22.2 65 18.3 79 79 E 3 6 30.18 1022 10 16 0.00 0.00
12:54 am 00:54 Mostly Cloudy 72 22.2 65 18.3 79 79 Calm 30.19 1022 10 16 0.00 0.00
1:54 am 01:54 Mostly Cloudy 71 21.7 66 18.9 84 84 ENE 3 6 30.19 1022 10 16 0.00 0.00
2:54 am 02:54 Mostly Cloudy 70 21.1 65 18.3 84 84 E 5 7 30.18 1022 10 16 0.00 0.00
3:54 am 03:54 Mostly Cloudy 71 21.7 66 18.9 84 84 E 9 15 30.18 1022 10 16 0.00 0.00
4:54 am 04:54 Mostly Cloudy 71 21.7 66 18.9 84 84 E 13 20 30.18 1022 10 16 0.00 0.00
5:18 am 05:18 Cloudy 71 21.7 65 18.3 81 81 E 12 19 30.18 1022 10 16 0.00 0.00
5:54 am 05:54 Cloudy 71 21.7 65 18.3 81 81 E 12 19 30.19 1023 10 16 0.00 0.00
6:05 am 06:05 Cloudy 70 21.1 64 17.8 82 82 E 15 24 30.20 1023 10 16 0.00 0.00
6:54 am 06:54 Cloudy 70 21.1 63 17.2 79 79 E 13 20 30.21 1023 10 16 0.00 0.00
7:17 am 07:17 Cloudy 70 21.1 63 17.2 79 79 E 15 24 30.22 1023 10 16 0.00 0.00
7:54 am 07:54 Cloudy 70 21.1 62 16.7 76 76 E 16 26 30.23 1024 10 16 0.00 0.00
8:54 am 08:54 Cloudy 70 21.1 61 16.1 73 73 E 14 22 30.23 1024 10 16 0.00 0.00
9:54 am 09:54 Cloudy 70 21.1 60 15.6 71 71 E 13 20 30.25 1024 10 16 0.00 0.00
10:54 am 10:54 Mostly Cloudy 72 22.2 60 15.6 66 66 E 16 26 30.25 1025 10 16 0.00 0.00
11:54 am 11:54 Cloudy 72 22.2 60 15.6 66 66 E 9 15 30.26 1025 10 16 0.00 0.00
12:54 pm 12:54 Cloudy 72 22.2 60 15.6 66 66 E 15 24 30.25 1024 10 16 0.00 0.00
1:54 pm 13:54 Cloudy 74 23.3 59 15 60 60 E 12 19 30.24 1024 10 16 0.00 0.00
2:54 pm 14:54 Cloudy 74 23.3 58 14.4 57 57 E 9 15 30.22 1023 10 16 0.00 0.00
3:54 pm 15:54 Mostly Cloudy 74 23.3 58 14.4 57 57 E 9 15 30.21 1023 10 16 0.00 0.00
4:54 pm 16:54 Mostly Cloudy 74 23.3 58 14.4 57 57 E 9 15 30.19 1022 10 16 0.00 0.00
5:54 pm 17:54 Mostly Cloudy 73 22.8 59 15 62 62 E 12 19 30.18 1022 10 16 0.00 0.00
6:54 pm 18:54 Mostly Cloudy 72 22.2 58 14.4 61 61 SE 5 7 30.18 1022 10 16 0.00 0.00
7:54 pm 19:54 Partly Cloudy 70 21.1 57 13.9 64 64 ESE 10 17 30.18 1022 10 16 0.00 0.00
8:54 pm 20:54 Mostly Clear 68 20 57 13.9 68 68 ESE 5 7 30.21 1023 10 16 0.00 0.00
9:54 pm 21:54 Mostly Clear 66 18.9 57 13.9 73 73 Calm 30.22 1023 10 16 0.00 0.00
10:54 pm 22:54 Mostly Clear 65 18.3 57 13.9 76 76 E 3 6 30.22 1024 10 16 0.00 0.00
11:54 pm 23:54 Mostly Clear 64 17.8 56 13.3 75 75 ESE 5 7 30.22 1023 10 16 0.00 0.00

Powered by AerisWeather